"datetime","temp","dp","rain_mm","uv","solar","mb","wind_mph","gust_mph","windchill","rh"
"2023-04-20 00:00:00",7.1,3.7,0.0,0.0,0,1022.5,1,2,"",79
"2023-04-20 00:01:00",7.2,3.6,0.0,0.0,0,1022.4,2,4,6.0,78
"2023-04-20 00:02:00",7.2,3.6,0.0,0.0,0,1022.4,2,3,"",78
"2023-04-20 00:03:00",7.2,3.6,0.0,0.0,0,1022.4,2,4,6.1,78
"2023-04-20 00:04:00",7.2,3.8,0.0,0.0,0,1022.4,3,7,5.0,79
"2023-04-20 00:05:00",7.2,3.6,0.0,0.0,0,1022.4,2,4,6.1,78
"2023-04-20 00:06:00",7.2,3.6,0.0,0.0,0,1022.4,1,3,"",78
"2023-04-20 00:07:00",7.2,3.6,0.0,0.0,0,1022.4,2,4,6.1,78
"2023-04-20 00:08:00",7.2,3.8,0.0,0.0,0,1022.4,1,2,"",79
"2023-04-20 00:09:00",7.2,3.8,0.0,0.0,0,1022.4,2,4,6.1,79
"2023-04-20 00:10:00",7.1,3.7,0.0,0.0,0,1022.4,3,7,5.0,79
"2023-04-20 00:11:00",7.1,3.7,0.0,0.0,0,1022.4,2,3,"",79
"2023-04-20 00:12:00",7.1,3.7,0.0,0.0,0,1022.4,2,3,"",79
"2023-04-20 00:13:00",7.1,3.7,0.0,0.0,0,1022.4,2,4,6.0,79
"2023-04-20 00:14:00",7.1,3.7,0.0,0.0,0,1022.4,2,3,"",79
"2023-04-20 00:15:00",7.1,3.7,0.0,0.0,0,1022.4,2,6,5.1,79
"2023-04-20 00:16:00",7.1,3.9,0.0,0.0,0,1022.2,2,3,"",80
"2023-04-20 00:17:00",7.0,3.8,0.0,0.0,0,1022.2,1,2,"",80
"2023-04-20 00:18:00",7.0,3.8,0.0,0.0,0,1022.3,1,2,"",80
"2023-04-20 00:19:00",6.9,3.7,0.0,0.0,0,1022.2,1,2,"",80
"2023-04-20 00:20:00",6.9,3.7,0.0,0.0,0,1022.2,2,5,5.4,80
"2023-04-20 00:21:00",6.9,3.7,0.0,0.0,0,1022.2,2,3,"",80
"2023-04-20 00:22:00",6.9,3.7,0.0,0.0,0,1022.2,2,3,"",80
"2023-04-20 00:23:00",6.9,3.7,0.0,0.0,0,1022.2,1,2,"",80
"2023-04-20 00:24:00",6.8,3.6,0.0,0.0,0,1022.2,1,3,"",80
"2023-04-20 00:25:00",6.8,3.6,0.0,0.0,0,1022.2,2,4,5.7,80
"2023-04-20 00:26:00",6.8,3.6,0.0,0.0,0,1022.2,1,3,"",80
"2023-04-20 00:27:00",6.8,3.6,0.0,0.0,0,1022.2,1,4,5.7,80
"2023-04-20 00:28:00",6.8,3.6,0.0,0.0,0,1022.2,1,2,"",80
"2023-04-20 00:29:00",6.8,3.6,0.0,0.0,0,1022.2,1,2,"",80
"2023-04-20 00:30:00",6.7,3.5,0.0,0.0,0,1022.2,2,2,"",80
"2023-04-20 00:31:00",6.6,3.4,0.0,0.0,0,1022.2,1,2,"",80
"2023-04-20 00:32:00",6.5,3.5,0.0,0.0,0,1022.2,2,4,5.3,81
"2023-04-20 00:33:00",6.5,3.5,0.0,0.0,0,1022.2,2,5,4.9,81
"2023-04-20 00:34:00",6.4,3.4,0.0,0.0,0,1022.3,1,2,"",81
"2023-04-20 00:35:00",6.3,3.3,0.0,0.0,0,1022.3,0,1,"",81
"2023-04-20 00:36:00",6.3,3.3,0.0,0.0,0,1022.2,0,1,"",81
"2023-04-20 00:37:00",6.3,3.3,0.0,0.0,0,1022.2,1,2,"",81
"2023-04-20 00:38:00",6.3,3.3,0.0,0.0,0,1022.2,2,3,"",81
"2023-04-20 00:39:00",6.3,3.5,0.0,0.0,0,1022.2,1,2,"",82
"2023-04-20 00:40:00",6.2,3.2,0.0,0.0,0,1022.2,2,4,5.1,81
"2023-04-20 00:41:00",6.2,3.2,0.0,0.0,0,1022.2,1,2,"",81
"2023-04-20 00:42:00",6.2,3.4,0.0,0.0,0,1022.2,2,3,"",82
"2023-04-20 00:43:00",6.2,3.4,0.0,0.0,0,1022.2,2,4,5.0,82
"2023-04-20 00:44:00",6.2,3.4,0.0,0.0,0,1022.2,2,5,4.5,82
"2023-04-20 00:45:00",6.2,3.4,0.0,0.0,0,1022.2,1,2,"",82
"2023-04-20 00:46:00",6.1,3.3,0.0,0.0,0,1022.2,2,3,"",82
"2023-04-20 00:47:00",6.1,3.3,0.0,0.0,0,1022.2,2,3,"",82
"2023-04-20 00:48:00",6.1,3.3,0.0,0.0,0,1022.2,3,4,4.7,82
"2023-04-20 00:49:00",6.1,3.3,0.0,0.0,0,1022.1,2,3,"",82
"2023-04-20 00:50:00",5.9,3.1,0.0,0.0,0,1022.1,2,4,4.6,82
"2023-04-20 00:51:00",5.9,3.1,0.0,0.0,0,1022.1,2,4,4.6,82
"2023-04-20 00:52:00",5.9,3.1,0.0,0.0,0,1022.1,2,4,4.6,82
"2023-04-20 00:53:00",5.9,3.1,0.0,0.0,0,1022.1,2,4,4.6,82
"2023-04-20 00:54:00",5.9,3.2,0.0,0.0,0,1022.1,1,2,"",83
"2023-04-20 00:55:00",6.0,3.3,0.0,0.0,0,1022.1,2,2,"",83
"2023-04-20 00:56:00",5.9,3.1,0.0,0.0,0,1022.1,2,3,"",82
"2023-04-20 00:57:00",5.9,3.1,0.0,0.0,0,1022.0,1,2,"",82
"2023-04-20 00:58:00",5.9,3.2,0.0,0.0,0,1022.0,2,3,"",83
"2023-04-20 00:59:00",5.9,3.2,0.0,0.0,0,1022.0,1,3,"",83
"2023-04-20 01:00:00",6.0,3.3,0.0,0.0,0,1022.0,2,3,"",83
"2023-04-20 01:01:00",6.1,3.4,0.0,0.0,0,1022.0,2,3,"",83
"2023-04-20 01:02:00",6.1,3.4,0.0,0.0,0,1022.0,1,4,4.9,83
"2023-04-20 01:03:00",6.1,3.4,0.0,0.0,0,1022.0,2,4,4.9,83
"2023-04-20 01:04:00",6.0,3.2,0.0,0.0,0,1021.9,2,4,4.9,82
"2023-04-20 01:05:00",5.9,3.1,0.0,0.0,0,1022.0,1,3,"",82
"2023-04-20 01:06:00",5.8,3.0,0.0,0.0,0,1022.0,1,2,"",82
"2023-04-20 01:07:00",5.8,3.1,0.0,0.0,0,1022.0,1,3,"",83
"2023-04-20 01:08:00",5.8,3.1,0.0,0.0,0,1022.0,2,4,4.5,83
"2023-04-20 01:09:00",5.8,3.1,0.0,0.0,0,1022.0,1,1,"",83
"2023-04-20 01:10:00",5.8,3.1,0.0,0.0,0,1022.0,1,2,"",83
"2023-04-20 01:11:00",5.8,3.1,0.0,0.0,0,1021.9,1,2,"",83
"2023-04-20 01:12:00",5.8,3.1,0.0,0.0,0,1021.9,1,3,"",83
"2023-04-20 01:13:00",5.8,3.1,0.0,0.0,0,1022.0,3,6,3.7,83
"2023-04-20 01:14:00",5.8,3.1,0.0,0.0,0,1022.0,2,5,3.9,83
"2023-04-20 01:15:00",5.8,3.1,0.0,0.0,0,1022.0,1,4,4.5,83
"2023-04-20 01:16:00",5.8,3.1,0.0,0.0,0,1022.0,2,4,4.5,83
"2023-04-20 01:17:00",5.9,3.2,0.0,0.0,0,1022.0,4,7,3.4,83
"2023-04-20 01:18:00",5.9,3.2,0.0,0.0,0,1022.0,2,4,4.6,83
"2023-04-20 01:19:00",5.9,3.2,0.0,0.0,0,1022.0,2,4,4.6,83
"2023-04-20 01:20:00",5.9,3.1,0.0,0.0,0,1022.0,1,2,"",82
"2023-04-20 01:21:00",5.8,3.1,0.0,0.0,0,1022.0,1,2,"",83
"2023-04-20 01:22:00",5.7,3.0,0.0,0.0,0,1022.0,1,2,"",83
"2023-04-20 01:23:00",5.8,3.1,0.0,0.0,0,1022.0,2,4,4.4,83
"2023-04-20 01:24:00",5.7,3.0,0.0,0.0,0,1022.0,1,3,"",83
"2023-04-20 01:25:00",5.7,3.0,0.0,0.0,0,1022.0,3,6,3.6,83
"2023-04-20 01:26:00",5.6,2.9,0.0,0.0,0,1022.0,1,3,"",83
"2023-04-20 01:27:00",5.7,3.0,0.0,0.0,0,1022.0,2,4,4.3,83
"2023-04-20 01:28:00",5.7,3.2,0.0,0.0,0,1022.0,2,3,"",84
"2023-04-20 01:29:00",5.7,3.2,0.0,0.0,0,1022.0,2,4,4.4,84
"2023-04-20 01:30:00",5.7,3.0,0.0,0.0,0,1022.0,2,2,"",83
"2023-04-20 01:31:00",5.7,3.2,0.0,0.0,0,1022.0,2,3,"",84
"2023-04-20 01:32:00",5.7,3.2,0.0,0.0,0,1021.9,2,3,"",84
"2023-04-20 01:33:00",5.8,3.3,0.0,0.0,0,1021.9,2,3,"",84
"2023-04-20 01:34:00",5.8,3.3,0.0,0.0,0,1021.9,3,5,4.1,84
"2023-04-20 01:35:00",5.8,3.1,0.0,0.0,0,1021.9,2,4,4.5,83
"2023-04-20 01:36:00",5.8,3.3,0.0,0.0,0,1021.9,2,3,"",84
"2023-04-20 01:37:00",5.8,3.1,0.0,0.0,0,1021.9,2,3,"",83
"2023-04-20 01:38:00",5.8,3.1,0.0,0.0,0,1022.0,2,3,"",83
"2023-04-20 01:39:00",5.8,3.3,0.0,0.0,0,1022.0,2,3,"",84
"2023-04-20 01:40:00",5.8,3.3,0.0,0.0,0,1021.9,4,6,3.7,84
"2023-04-20 01:41:00",5.8,3.3,0.0,0.0,0,1021.9,2,3,"",84
"2023-04-20 01:42:00",5.8,3.3,0.0,0.0,0,1021.9,2,4,4.5,84
"2023-04-20 01:43:00",5.8,3.3,0.0,0.0,0,1021.8,3,4,4.5,84
"2023-04-20 01:44:00",5.8,3.3,0.0,0.0,0,1021.9,3,7,3.4,84
"2023-04-20 01:45:00",5.8,3.3,0.0,0.0,0,1021.8,2,2,"",84
"2023-04-20 01:46:00",5.8,3.3,0.0,0.0,0,1021.8,2,3,"",84
"2023-04-20 01:47:00",5.8,3.3,0.0,0.0,0,1021.8,2,4,4.5,84
"2023-04-20 01:48:00",5.8,3.3,0.0,0.0,0,1021.8,2,3,"",84
"2023-04-20 01:49:00",5.8,3.3,0.0,0.0,0,1021.8,2,3,"",84
"2023-04-20 01:50:00",5.7,3.2,0.0,0.0,0,1021.8,2,3,"",84
"2023-04-20 01:51:00",5.7,3.2,0.0,0.0,0,1021.7,1,2,"",84
"2023-04-20 01:52:00",5.7,3.2,0.0,0.0,0,1021.7,2,3,"",84
"2023-04-20 01:53:00",5.7,3.2,0.0,0.0,0,1021.7,2,4,4.4,84
"2023-04-20 01:54:00",5.7,3.2,0.0,0.0,0,1021.7,2,5,3.9,84
"2023-04-20 01:55:00",5.7,3.2,0.0,0.0,0,1021.7,3,5,3.9,84
"2023-04-20 01:56:00",5.7,3.2,0.0,0.0,0,1021.7,3,7,3.2,84
"2023-04-20 01:57:00",5.8,3.3,0.0,0.0,0,1021.7,1,2,"",84
"2023-04-20 01:58:00",5.8,3.3,0.0,0.0,0,1021.7,2,4,4.5,84
"2023-04-20 01:59:00",5.8,3.3,0.0,0.0,0,1021.7,1,2,"",84
"2023-04-20 02:00:00",5.8,3.3,0.0,0.0,0,1021.6,2,4,4.5,84
"2023-04-20 02:01:00",5.8,3.3,0.0,0.0,0,1021.6,1,3,"",84
"2023-04-20 02:02:00",5.8,3.3,0.0,0.0,0,1021.6,2,3,"",84
"2023-04-20 02:03:00",5.7,3.0,0.0,0.0,0,1021.6,1,2,"",83
"2023-04-20 02:04:00",5.7,3.2,0.0,0.0,0,1021.7,1,3,"",84
"2023-04-20 02:05:00",5.6,3.1,0.0,0.0,0,1021.7,1,3,"",84
"2023-04-20 02:06:00",5.6,3.1,0.0,0.0,0,1021.6,1,3,"",84
"2023-04-20 02:07:00",5.6,3.1,0.0,0.0,0,1021.6,1,2,"",84
"2023-04-20 02:08:00",5.5,3.0,0.0,0.0,0,1021.6,1,2,"",84
"2023-04-20 02:09:00",5.5,3.0,0.0,0.0,0,1021.6,2,3,"",84
"2023-04-20 02:10:00",5.5,3.0,0.0,0.0,0,1021.6,2,3,"",84
"2023-04-20 02:11:00",5.5,3.0,0.0,0.0,0,1021.6,2,2,"",84
"2023-04-20 02:12:00",5.5,3.0,0.0,0.0,0,1021.6,1,2,"",84
"2023-04-20 02:13:00",5.6,3.1,0.0,0.0,0,1021.5,1,2,"",84
"2023-04-20 02:14:00",5.6,3.1,0.0,0.0,0,1021.5,1,1,"",84
"2023-04-20 02:15:00",5.6,3.1,0.0,0.0,0,1021.6,1,2,"",84
"2023-04-20 02:16:00",5.6,3.1,0.0,0.0,0,1021.6,1,2,"",84
"2023-04-20 02:17:00",5.6,3.1,0.0,0.0,0,1021.5,1,2,"",84
"2023-04-20 02:18:00",5.6,3.1,0.0,0.0,0,1021.5,1,2,"",84
"2023-04-20 02:19:00",5.5,3.0,0.0,0.0,0,1021.5,1,3,"",84
"2023-04-20 02:20:00",5.5,3.0,0.0,0.0,0,1021.5,2,3,"",84
"2023-04-20 02:21:00",5.5,3.0,0.0,0.0,0,1021.5,2,3,"",84
"2023-04-20 02:22:00",5.5,3.0,0.0,0.0,0,1021.5,1,2,"",84
"2023-04-20 02:23:00",5.5,3.0,0.0,0.0,0,1021.5,2,2,"",84
"2023-04-20 02:24:00",5.5,3.0,0.0,0.0,0,1021.5,1,2,"",84
"2023-04-20 02:25:00",5.5,3.0,0.0,0.0,0,1021.5,1,2,"",84
"2023-04-20 02:26:00",5.5,3.0,0.0,0.0,0,1021.5,1,2,"",84
"2023-04-20 02:27:00",5.5,3.0,0.0,0.0,0,1021.5,1,2,"",84
"2023-04-20 02:28:00",5.5,3.0,0.0,0.0,0,1021.5,1,2,"",84
"2023-04-20 02:29:00",5.4,2.9,0.0,0.0,0,1021.5,1,2,"",84
"2023-04-20 02:30:00",5.4,2.9,0.0,0.0,0,1021.4,1,2,"",84
"2023-04-20 02:31:00",5.4,2.9,0.0,0.0,0,1021.5,1,2,"",84
"2023-04-20 02:32:00",5.4,2.9,0.0,0.0,0,1021.5,1,2,"",84
"2023-04-20 02:33:00",5.3,2.8,0.0,0.0,0,1021.4,1,2,"",84
"2023-04-20 02:34:00",5.3,3.0,0.0,0.0,0,1021.4,1,2,"",85
"2023-04-20 02:35:00",5.3,3.0,0.0,0.0,0,1021.4,1,2,"",85
"2023-04-20 02:36:00",5.2,2.9,0.0,0.0,0,1021.4,1,2,"",85
"2023-04-20 02:37:00",5.1,2.8,0.0,0.0,0,1021.5,1,2,"",85
"2023-04-20 02:38:00",5.1,2.8,0.0,0.0,0,1021.5,1,2,"",85
"2023-04-20 02:39:00",5.1,2.8,0.0,0.0,0,1021.4,1,2,"",85
"2023-04-20 02:40:00",5.1,2.8,0.0,0.0,0,1021.4,1,1,"",85
"2023-04-20 02:41:00",5.1,2.8,0.0,0.0,0,1021.5,1,2,"",85
"2023-04-20 02:42:00",5.1,2.8,0.0,0.0,0,1021.4,0,2,"",85
"2023-04-20 02:43:00",5.1,2.8,0.0,0.0,0,1021.4,1,2,"",85
"2023-04-20 02:44:00",5.0,2.7,0.0,0.0,0,1021.4,1,2,"",85
"2023-04-20 02:45:00",5.0,2.7,0.0,0.0,0,1021.4,1,2,"",85
"2023-04-20 02:46:00",4.9,2.6,0.0,0.0,0,1021.5,1,3,"",85
"2023-04-20 02:47:00",4.9,2.6,0.0,0.0,0,1021.4,1,2,"",85
"2023-04-20 02:48:00",4.8,2.5,0.0,0.0,0,1021.4,0,1,"",85
"2023-04-20 02:49:00",4.8,2.7,0.0,0.0,0,1021.4,0,2,"",86
"2023-04-20 02:50:00",4.9,2.8,0.0,0.0,0,1021.4,1,2,"",86
"2023-04-20 02:51:00",4.8,2.7,0.0,0.0,0,1021.4,1,2,"",86
"2023-04-20 02:52:00",4.8,2.7,0.0,0.0,0,1021.4,1,2,"",86
"2023-04-20 02:53:00",4.8,2.7,0.0,0.0,0,1021.4,1,1,"",86
"2023-04-20 02:54:00",4.8,2.7,0.0,0.0,0,1021.4,1,3,"",86
"2023-04-20 02:55:00",4.8,2.7,0.0,0.0,0,1021.3,1,2,"",86
"2023-04-20 02:56:00",4.9,2.8,0.0,0.0,0,1021.3,0,1,"",86
"2023-04-20 02:57:00",4.9,2.8,0.0,0.0,0,1021.4,1,2,"",86
"2023-04-20 02:58:00",4.9,2.8,0.0,0.0,0,1021.4,1,1,"",86
"2023-04-20 02:59:00",4.8,2.5,0.0,0.0,0,1021.3,0,1,"",85
"2023-04-20 03:00:00",4.7,2.4,0.0,0.0,0,1021.3,1,2,"",85
"2023-04-20 03:01:00",4.7,2.6,0.0,0.0,0,1021.4,1,2,"",86
"2023-04-20 03:02:00",4.7,2.6,0.0,0.0,0,1021.3,1,2,"",86
"2023-04-20 03:03:00",4.7,2.6,0.0,0.0,0,1021.3,1,1,"",86
"2023-04-20 03:04:00",4.6,2.5,0.0,0.0,0,1021.3,1,2,"",86
"2023-04-20 03:05:00",4.6,2.5,0.0,0.0,0,1021.3,2,5,2.7,86
"2023-04-20 03:06:00",4.7,2.6,0.0,0.0,0,1021.3,2,5,2.8,86
"2023-04-20 03:07:00",4.8,2.8,0.0,0.0,0,1021.4,2,4,3.2,87
"2023-04-20 03:08:00",4.8,2.7,0.0,0.0,0,1021.3,1,2,"",86
"2023-04-20 03:09:00",4.8,2.7,0.0,0.0,0,1021.3,1,3,"",86
"2023-04-20 03:10:00",4.7,2.6,0.0,0.0,0,1021.3,0,1,"",86
"2023-04-20 03:11:00",4.7,2.6,0.0,0.0,0,1021.3,1,1,"",86
"2023-04-20 03:12:00",4.7,2.6,0.0,0.0,0,1021.4,1,2,"",86
"2023-04-20 03:13:00",4.6,2.5,0.0,0.0,0,1021.3,1,1,"",86
"2023-04-20 03:14:00",4.6,2.5,0.0,0.0,0,1021.3,1,2,"",86
"2023-04-20 03:15:00",4.6,2.6,0.0,0.0,0,1021.3,1,1,"",87
"2023-04-20 03:16:00",4.6,2.6,0.0,0.0,0,1021.3,1,2,"",87
"2023-04-20 03:17:00",4.5,2.4,0.0,0.0,0,1021.3,1,2,"",86
"2023-04-20 03:18:00",4.5,2.4,0.0,0.0,0,1021.4,1,2,"",86
"2023-04-20 03:19:00",4.4,2.4,0.0,0.0,0,1021.4,1,1,"",87
"2023-04-20 03:20:00",4.4,2.4,0.0,0.0,0,1021.4,1,2,"",87
"2023-04-20 03:21:00",4.3,2.3,0.0,0.0,0,1021.3,1,2,"",87
"2023-04-20 03:22:00",4.4,2.4,0.0,0.0,0,1021.3,0,1,"",87
"2023-04-20 03:23:00",4.4,2.4,0.0,0.0,0,1021.3,0,1,"",87
"2023-04-20 03:24:00",4.3,2.3,0.0,0.0,0,1021.3,0,1,"",87
"2023-04-20 03:25:00",4.3,2.3,0.0,0.0,0,1021.3,1,1,"",87
"2023-04-20 03:26:00",4.2,2.2,0.0,0.0,0,1021.2,1,2,"",87
"2023-04-20 03:27:00",4.2,2.2,0.0,0.0,0,1021.3,0,1,"",87
"2023-04-20 03:28:00",4.2,2.2,0.0,0.0,0,1021.3,2,5,2.2,87
"2023-04-20 03:29:00",4.1,2.1,0.0,0.0,0,1021.3,1,1,"",87
"2023-04-20 03:30:00",4.1,2.1,0.0,0.0,0,1021.3,1,2,"",87
"2023-04-20 03:31:00",4.0,2.0,0.0,0.0,0,1021.2,1,2,"",87
"2023-04-20 03:32:00",4.1,2.3,0.0,0.0,0,1021.2,1,3,"",88
"2023-04-20 03:33:00",4.1,2.3,0.0,0.0,0,1021.2,1,1,"",88
"2023-04-20 03:34:00",4.1,2.3,0.0,0.0,0,1021.2,0,1,"",88
"2023-04-20 03:35:00",4.1,2.3,0.0,0.0,0,1021.2,1,1,"",88
"2023-04-20 03:36:00",4.0,2.0,0.0,0.0,0,1021.2,0,1,"",87
"2023-04-20 03:37:00",3.9,1.9,0.0,0.0,0,1021.2,0,2,"",87
"2023-04-20 03:38:00",3.8,2.0,0.0,0.0,0,1021.2,0,1,"",88
"2023-04-20 03:39:00",3.8,2.0,0.0,0.0,0,1021.2,0,0,"",88
"2023-04-20 03:40:00",3.8,2.0,0.0,0.0,0,1021.2,0,1,"",88
"2023-04-20 03:41:00",3.8,2.0,0.0,0.0,0,1021.2,0,1,"",88
"2023-04-20 03:42:00",3.8,2.0,0.0,0.0,0,1021.2,1,2,"",88
"2023-04-20 03:43:00",3.8,2.0,0.0,0.0,0,1021.2,0,1,"",88
"2023-04-20 03:44:00",3.8,2.0,0.0,0.0,0,1021.2,1,1,"",88
"2023-04-20 03:45:00",3.8,2.2,0.0,0.0,0,1021.2,1,1,"",89
"2023-04-20 03:46:00",3.8,2.0,0.0,0.0,0,1021.1,1,2,"",88
"2023-04-20 03:47:00",3.8,2.0,0.0,0.0,0,1021.1,1,1,"",88
"2023-04-20 03:48:00",3.7,1.9,0.0,0.0,0,1021.1,0,1,"",88
"2023-04-20 03:49:00",3.6,1.8,0.0,0.0,0,1021.2,1,1,"",88
"2023-04-20 03:50:00",3.6,1.8,0.0,0.0,0,1021.1,0,1,"",88
"2023-04-20 03:51:00",3.5,1.7,0.0,0.0,0,1021.2,0,1,"",88
"2023-04-20 03:52:00",3.6,1.8,0.0,0.0,0,1021.2,0,1,"",88
"2023-04-20 03:53:00",3.5,1.9,0.0,0.0,0,1021.2,1,2,"",89
"2023-04-20 03:54:00",3.5,1.9,0.0,0.0,0,1021.2,0,2,"",89
"2023-04-20 03:55:00",3.4,1.8,0.0,0.0,0,1021.1,1,2,"",89
"2023-04-20 03:56:00",3.4,1.8,0.0,0.0,0,1021.2,0,1,"",89
"2023-04-20 03:57:00",3.4,1.8,0.0,0.0,0,1021.1,0,0,"",89
"2023-04-20 03:58:00",3.3,1.7,0.0,0.0,0,1021.1,1,1,"",89
"2023-04-20 03:59:00",3.3,1.7,0.0,0.0,0,1021.2,1,1,"",89
"2023-04-20 04:00:00",3.3,1.7,0.0,0.0,0,1021.2,1,1,"",89
"2023-04-20 04:01:00",3.3,1.7,0.0,0.0,0,1021.2,1,2,"",89
"2023-04-20 04:02:00",3.4,1.8,0.0,0.0,0,1021.2,0,1,"",89
"2023-04-20 04:03:00",3.3,1.7,0.0,0.0,0,1021.2,0,1,"",89
"2023-04-20 04:04:00",3.3,1.7,0.0,0.0,0,1021.2,0,0,"",89
"2023-04-20 04:05:00",3.3,1.8,0.0,0.0,0,1021.2,0,0,"",90
"2023-04-20 04:06:00",3.3,1.8,0.0,0.0,0,1021.2,0,1,"",90
"2023-04-20 04:07:00",3.3,1.7,0.0,0.0,0,1021.2,0,1,"",89
"2023-04-20 04:08:00",3.3,1.7,0.0,0.0,0,1021.2,0,0,"",89
"2023-04-20 04:09:00",3.3,1.7,0.0,0.0,0,1021.1,0,0,"",89
"2023-04-20 04:10:00",3.2,1.6,0.0,0.0,0,1021.1,0,1,"",89
"2023-04-20 04:11:00",3.2,1.6,0.0,0.0,0,1021.2,0,1,"",89
"2023-04-20 04:12:00",3.2,1.7,0.0,0.0,0,1021.2,0,1,"",90
"2023-04-20 04:13:00",3.1,1.6,0.0,0.0,0,1021.2,0,1,"",90
"2023-04-20 04:14:00",3.2,1.7,0.0,0.0,0,1021.1,1,1,"",90
"2023-04-20 04:15:00",3.2,1.7,0.0,0.0,0,1021.2,0,1,"",90
"2023-04-20 04:16:00",3.2,1.7,0.0,0.0,0,1021.1,1,2,"",90
"2023-04-20 04:17:00",3.2,1.7,0.0,0.0,0,1021.2,0,1,"",90
"2023-04-20 04:18:00",3.2,1.7,0.0,0.0,0,1021.2,1,2,"",90
"2023-04-20 04:19:00",3.2,1.7,0.0,0.0,0,1021.2,1,1,"",90
"2023-04-20 04:20:00",3.1,1.6,0.0,0.0,0,1021.2,1,1,"",90
"2023-04-20 04:21:00",3.1,1.6,0.0,0.0,0,1021.2,1,1,"",90
"2023-04-20 04:22:00",2.9,1.4,0.0,0.0,0,1021.2,0,2,"",90
"2023-04-20 04:23:00",2.9,1.4,0.0,0.0,0,1021.2,0,1,"",90
"2023-04-20 04:24:00",2.9,1.4,0.0,0.0,0,1021.2,1,2,"",90
"2023-04-20 04:25:00",2.9,1.4,0.0,0.0,0,1021.2,1,2,"",90
"2023-04-20 04:26:00",2.9,1.4,0.0,0.0,0,1021.2,1,2,"",90
"2023-04-20 04:27:00",2.9,1.4,0.0,0.0,0,1021.2,1,2,"",90
"2023-04-20 04:28:00",2.9,1.4,0.0,0.0,0,1021.2,0,1,"",90
"2023-04-20 04:29:00",2.9,1.4,0.0,0.0,0,1021.2,0,1,"",90
"2023-04-20 04:30:00",2.9,1.4,0.0,0.0,0,1021.2,0,1,"",90
"2023-04-20 04:31:00",2.9,1.4,0.0,0.0,0,1021.2,0,1,"",90
"2023-04-20 04:32:00",2.9,1.4,0.0,0.0,0,1021.2,0,1,"",90
"2023-04-20 04:33:00",2.9,1.4,0.0,0.0,0,1021.2,0,1,"",90
"2023-04-20 04:34:00",2.8,1.3,0.0,0.0,0,1021.2,0,1,"",90
"2023-04-20 04:35:00",2.9,1.4,0.0,0.0,0,1021.2,0,0,"",90
"2023-04-20 04:36:00",2.9,1.4,0.0,0.0,0,1021.2,0,0,"",90
"2023-04-20 04:37:00",2.8,1.3,0.0,0.0,0,1021.2,1,1,"",90
"2023-04-20 04:38:00",2.9,1.4,0.0,0.0,0,1021.2,0,1,"",90
"2023-04-20 04:39:00",2.9,1.6,0.0,0.0,0,1021.2,0,1,"",91
"2023-04-20 04:40:00",2.8,1.3,0.0,0.0,0,1021.2,1,1,"",90
"2023-04-20 04:41:00",2.8,1.3,0.0,0.0,0,1021.2,1,1,"",90
"2023-04-20 04:42:00",2.8,1.5,0.0,0.0,0,1021.2,1,1,"",91
"2023-04-20 04:43:00",2.8,1.5,0.0,0.0,0,1021.3,1,1,"",91
"2023-04-20 04:44:00",2.8,1.5,0.0,0.0,0,1021.3,1,2,"",91
"2023-04-20 04:45:00",2.8,1.5,0.0,0.0,0,1021.3,1,1,"",91
"2023-04-20 04:46:00",2.8,1.5,0.0,0.0,0,1021.3,1,2,"",91
"2023-04-20 04:47:00",2.8,1.5,0.0,0.0,0,1021.2,1,2,"",91
"2023-04-20 04:48:00",2.9,1.6,0.0,0.0,0,1021.3,1,2,"",91
"2023-04-20 04:49:00",2.8,1.5,0.0,0.0,0,1021.2,0,1,"",91
"2023-04-20 04:50:00",2.8,1.5,0.0,0.0,0,1021.3,0,1,"",91
"2023-04-20 04:51:00",2.8,1.5,0.0,0.0,0,1021.2,1,1,"",91
"2023-04-20 04:52:00",2.7,1.4,0.0,0.0,0,1021.3,1,1,"",91
"2023-04-20 04:53:00",2.8,1.5,0.0,0.0,0,1021.3,0,0,"",91
"2023-04-20 04:54:00",2.8,1.5,0.0,0.0,0,1021.3,1,2,"",91
"2023-04-20 04:55:00",2.8,1.5,0.0,0.0,0,1021.3,0,1,"",91
"2023-04-20 04:56:00",2.7,1.4,0.0,0.0,0,1021.3,0,1,"",91
"2023-04-20 04:57:00",2.7,1.4,0.0,0.0,0,1021.3,0,1,"",91
"2023-04-20 04:58:00",2.8,1.5,0.0,0.0,0,1021.3,0,0,"",91
"2023-04-20 04:59:00",2.8,1.5,0.0,0.0,0,1021.3,0,0,"",91
"2023-04-20 05:00:00",2.8,1.5,0.0,0.0,0,1021.3,0,0,"",91
"2023-04-20 05:01:00",2.7,1.4,0.0,0.0,0,1021.3,0,0,"",91
"2023-04-20 05:02:00",2.6,1.3,0.0,0.0,0,1021.3,1,1,"",91
"2023-04-20 05:03:00",2.6,1.3,0.0,0.0,0,1021.3,0,1,"",91
"2023-04-20 05:04:00",2.6,1.3,0.0,0.0,0,1021.3,1,1,"",91
"2023-04-20 05:05:00",2.6,1.3,0.0,0.0,0,1021.3,0,1,"",91
"2023-04-20 05:06:00",2.6,1.3,0.0,0.0,0,1021.3,0,1,"",91
"2023-04-20 05:07:00",2.6,1.3,0.0,0.0,0,1021.3,1,1,"",91
"2023-04-20 05:08:00",2.6,1.3,0.0,0.0,0,1021.3,1,1,"",91
"2023-04-20 05:09:00",2.4,1.1,0.0,0.0,0,1021.3,0,1,"",91
"2023-04-20 05:10:00",2.4,1.1,0.0,0.0,0,1021.3,0,1,"",91
"2023-04-20 05:11:00",2.4,1.1,0.0,0.0,0,1021.3,1,1,"",91
"2023-04-20 05:12:00",2.4,1.1,0.0,0.0,0,1021.3,0,1,"",91
"2023-04-20 05:13:00",2.4,1.1,0.0,0.0,0,1021.3,0,1,"",91
"2023-04-20 05:14:00",2.4,1.1,0.0,0.0,0,1021.3,0,1,"",91
"2023-04-20 05:15:00",2.4,1.1,0.0,0.0,0,1021.3,0,1,"",91
"2023-04-20 05:16:00",2.4,1.1,0.0,0.0,0,1021.3,0,1,"",91
"2023-04-20 05:17:00",2.3,1.0,0.0,0.0,0,1021.3,0,1,"",91
"2023-04-20 05:18:00",2.3,1.0,0.0,0.0,0,1021.3,0,1,"",91
"2023-04-20 05:19:00",2.4,1.1,0.0,0.0,0,1021.3,0,1,"",91
"2023-04-20 05:20:00",2.3,1.0,0.0,0.0,0,1021.2,0,1,"",91
"2023-04-20 05:21:00",2.3,1.0,0.0,0.0,0,1021.3,0,1,"",91
"2023-04-20 05:22:00",2.3,1.1,0.0,0.0,0,1021.3,0,1,"",92
"2023-04-20 05:23:00",2.3,1.1,0.0,0.0,0,1021.2,0,1,"",92
"2023-04-20 05:24:00",2.3,1.1,0.0,0.0,0,1021.2,0,1,"",92
"2023-04-20 05:25:00",2.3,1.1,0.0,0.0,0,1021.2,0,1,"",92
"2023-04-20 05:26:00",2.3,1.1,0.0,0.0,0,1021.2,0,0,"",92
"2023-04-20 05:27:00",2.3,1.1,0.0,0.0,0,1021.2,0,1,"",92
"2023-04-20 05:28:00",2.3,1.0,0.0,0.0,0,1021.2,0,1,"",91
"2023-04-20 05:29:00",2.2,0.9,0.0,0.0,0,1021.3,0,1,"",91
"2023-04-20 05:30:00",2.2,0.9,0.0,0.0,0,1021.3,0,0,"",91
"2023-04-20 05:31:00",2.2,0.9,0.0,0.0,0,1021.2,0,1,"",91
"2023-04-20 05:32:00",2.2,1.0,0.0,0.0,0,1021.3,0,1,"",92
"2023-04-20 05:33:00",2.3,1.1,0.0,0.0,0,1021.3,0,1,"",92
"2023-04-20 05:34:00",2.3,1.1,0.0,0.0,0,1021.3,0,0,"",92
"2023-04-20 05:35:00",2.3,1.1,0.0,0.0,0,1021.3,0,0,"",92
"2023-04-20 05:36:00",2.2,1.0,0.0,0.0,0,1021.3,0,1,"",92
"2023-04-20 05:37:00",2.2,0.9,0.0,0.0,0,1021.3,1,1,"",91
"2023-04-20 05:38:00",2.2,1.0,0.0,0.0,0,1021.3,0,1,"",92
"2023-04-20 05:39:00",2.2,1.0,0.0,0.0,0,1021.3,0,1,"",92
"2023-04-20 05:40:00",2.3,1.1,0.0,0.0,0,1021.3,0,1,"",92
"2023-04-20 05:41:00",2.3,1.1,0.0,0.0,0,1021.3,0,1,"",92
"2023-04-20 05:42:00",2.3,1.1,0.0,0.0,0,1021.3,1,2,"",92
"2023-04-20 05:43:00",2.2,1.0,0.0,0.0,0,1021.3,1,1,"",92
"2023-04-20 05:44:00",2.2,1.0,0.0,0.0,0,1021.3,1,1,"",92
"2023-04-20 05:45:00",2.2,1.0,0.0,0.0,0,1021.3,0,1,"",92
"2023-04-20 05:46:00",2.2,1.0,0.0,0.0,0,1021.3,1,2,"",92
"2023-04-20 05:47:00",2.2,1.0,0.0,0.0,0,1021.3,0,1,"",92
"2023-04-20 05:48:00",2.3,1.1,0.0,0.0,0,1021.3,0,1,"",92
"2023-04-20 05:49:00",2.3,1.1,0.0,0.0,0,1021.3,0,1,"",92
"2023-04-20 05:50:00",2.3,1.1,0.0,0.0,0,1021.3,1,2,"",92
"2023-04-20 05:51:00",2.3,1.1,0.0,0.0,0,1021.3,0,1,"",92
"2023-04-20 05:52:00",2.3,1.1,0.0,0.0,0,1021.3,1,1,"",92
"2023-04-20 05:53:00",2.3,1.1,0.0,0.0,0,1021.4,0,1,"",92
"2023-04-20 05:54:00",2.3,1.1,0.0,0.0,0,1021.3,0,1,"",92
"2023-04-20 05:55:00",2.3,1.1,0.0,0.0,0,1021.4,1,1,"",92
"2023-04-20 05:56:00",2.3,1.1,0.0,0.0,0,1021.4,1,2,"",92
"2023-04-20 05:57:00",2.3,1.1,0.0,0.0,0,1021.4,0,1,"",92
"2023-04-20 05:58:00",2.3,1.1,0.0,0.0,0,1021.4,1,2,"",92
"2023-04-20 05:59:00",2.3,1.1,0.0,0.0,0,1021.3,1,2,"",92
"2023-04-20 06:00:00",2.3,1.1,0.0,0.0,0,1021.4,1,2,"",92
"2023-04-20 06:01:00",2.2,1.0,0.0,0.0,0,1021.4,1,1,"",92
"2023-04-20 06:02:00",2.3,1.1,0.0,0.0,0,1021.4,0,0,"",92
"2023-04-20 06:03:00",2.2,1.0,0.0,0.0,0,1021.4,1,2,"",92
"2023-04-20 06:04:00",2.2,1.0,0.0,0.0,0,1021.4,1,2,"",92
"2023-04-20 06:05:00",2.2,1.0,0.0,0.0,0,1021.4,1,1,"",92
"2023-04-20 06:06:00",2.2,1.0,0.0,0.0,0,1021.4,1,2,"",92
"2023-04-20 06:07:00",2.2,1.0,0.0,0.0,5,1021.4,1,2,"",92
"2023-04-20 06:08:00",2.3,1.1,0.0,0.0,5,1021.4,1,2,"",92
"2023-04-20 06:09:00",2.3,1.1,0.0,0.0,5,1021.4,1,2,"",92
"2023-04-20 06:10:00",2.3,1.1,0.0,0.0,5,1021.4,1,2,"",92
"2023-04-20 06:11:00",2.3,1.1,0.0,0.0,5,1021.4,1,1,"",92
"2023-04-20 06:12:00",2.3,1.1,0.0,0.0,7,1021.4,1,1,"",92
"2023-04-20 06:13:00",2.3,1.1,0.0,0.0,7,1021.5,1,2,"",92
"2023-04-20 06:14:00",2.4,1.2,0.0,0.0,7,1021.5,1,2,"",92
"2023-04-20 06:15:00",2.4,1.2,0.0,0.0,7,1021.5,1,1,"",92
"2023-04-20 06:16:00",2.4,1.4,0.0,0.0,7,1021.5,1,2,"",93
"2023-04-20 06:17:00",2.4,1.2,0.0,0.0,7,1021.5,0,1,"",92
"2023-04-20 06:18:00",2.4,1.2,0.0,0.0,9,1021.4,0,1,"",92
"2023-04-20 06:19:00",2.5,1.3,0.0,0.0,9,1021.4,0,1,"",92
"2023-04-20 06:20:00",2.5,1.3,0.0,0.0,9,1021.4,0,0,"",92
"2023-04-20 06:21:00",2.5,1.3,0.0,0.0,11,1021.4,0,1,"",92
"2023-04-20 06:22:00",2.5,1.3,0.0,0.0,11,1021.5,0,1,"",92
"2023-04-20 06:23:00",2.5,1.3,0.0,0.0,11,1021.5,0,1,"",92
"2023-04-20 06:24:00",2.4,1.2,0.0,0.0,11,1021.5,0,1,"",92
"2023-04-20 06:25:00",2.4,1.4,0.0,0.0,12,1021.5,0,1,"",93
"2023-04-20 06:26:00",2.4,1.2,0.0,0.0,12,1021.5,1,1,"",92
"2023-04-20 06:27:00",2.4,1.2,0.0,0.0,12,1021.5,0,1,"",92
"2023-04-20 06:28:00",2.5,1.3,0.0,0.0,12,1021.5,0,1,"",92
"2023-04-20 06:29:00",2.4,1.2,0.0,0.0,14,1021.5,0,2,"",92
"2023-04-20 06:30:00",2.4,1.2,0.0,0.0,14,1021.5,0,1,"",92
"2023-04-20 06:31:00",2.4,1.2,0.0,0.0,14,1021.5,1,1,"",92
"2023-04-20 06:32:00",2.5,1.5,0.0,0.0,14,1021.5,0,1,"",93
"2023-04-20 06:33:00",2.6,1.6,0.0,0.0,16,1021.5,0,1,"",93
"2023-04-20 06:34:00",2.6,1.6,0.0,0.0,16,1021.5,1,2,"",93
"2023-04-20 06:35:00",2.6,1.6,0.0,0.0,16,1021.5,0,1,"",93
"2023-04-20 06:36:00",2.6,1.6,0.0,0.0,18,1021.5,1,2,"",93
"2023-04-20 06:37:00",2.6,1.4,0.0,0.0,18,1021.5,0,1,"",92
"2023-04-20 06:38:00",2.6,1.6,0.0,0.0,18,1021.5,0,1,"",93
"2023-04-20 06:39:00",2.6,1.4,0.0,0.0,18,1021.5,0,1,"",92
"2023-04-20 06:40:00",2.6,1.6,0.0,0.0,18,1021.5,0,1,"",93
"2023-04-20 06:41:00",2.6,1.6,0.0,0.0,19,1021.5,0,1,"",93
"2023-04-20 06:42:00",2.6,1.6,0.0,0.0,19,1021.5,0,1,"",93
"2023-04-20 06:43:00",2.6,1.6,0.0,0.0,19,1021.5,0,1,"",93
"2023-04-20 06:44:00",2.7,1.7,0.0,0.0,19,1021.5,1,2,"",93
"2023-04-20 06:45:00",2.7,1.7,0.0,0.0,21,1021.5,0,1,"",93
"2023-04-20 06:46:00",2.7,1.7,0.0,0.0,21,1021.5,0,1,"",93
"2023-04-20 06:47:00",2.8,1.8,0.0,0.0,21,1021.5,1,1,"",93
"2023-04-20 06:48:00",2.8,1.8,0.0,0.0,21,1021.5,0,1,"",93
"2023-04-20 06:49:00",2.8,1.8,0.0,0.0,21,1021.6,1,2,"",93
"2023-04-20 06:50:00",2.8,1.8,0.0,0.0,23,1021.5,1,1,"",93
"2023-04-20 06:51:00",2.8,1.8,0.0,0.0,23,1021.5,2,3,"",93
"2023-04-20 06:52:00",2.9,1.9,0.0,0.0,23,1021.5,1,2,"",93
"2023-04-20 06:53:00",3.0,2.0,0.0,0.0,25,1021.5,1,1,"",93
"2023-04-20 06:54:00",3.0,2.0,0.0,0.0,25,1021.5,1,2,"",93
"2023-04-20 06:55:00",3.1,2.1,0.0,0.0,25,1021.5,0,1,"",93
"2023-04-20 06:56:00",3.1,2.1,0.0,0.0,25,1021.5,0,1,"",93